Regional Weather Roundup
Issued by NWS Little Rock, AR

Home | Current Version | Previous Version | Graphics & Text | Print | Product List | Glossary On
Versions: 1 2 3 4 5 6 7 8 9 10 11 12 13 14 15 16 17 18 19 20 21 22 23 24 25 26 27 28 29 30 31 32 33 34 35 36 37 38 39 40 41 42 43 44 45 46 47 48 49 50
000
ASUS44 KLZK 220505
RWRLZK

WEATHER ROUNDUP FOR ARKANSAS
NATIONAL WEATHER SERVICE LITTLE ROCK AR
1200 AM CDT FRI AUG 22 2014

NOTE: "FAIR" INDICATES FEW OR NO CLOUDS BELOW 12,000 FEET WITH NO
SIGNIFICANT WEATHER AND/OR OBSTRUCTIONS TO VISIBILITY.

ARZ001-003-010-029-220600-
NORTHWEST ARKANSAS

CITY           SKY/WX    TMP DP  RH WIND       PRES   REMARKS
FAYETTEVILLE   CLEAR     78  72  81 S12       30.03F
FORT SMITH     CLEAR     80  74  81 NE6       30.00S HX  85
HARRISON       PTCLDY    77  72  84 S7        30.06S
BENTONVILLE    CLEAR     77  70  78 S5        30.04F
ROGERS         CLEAR     79  70  74 S8        30.04F
SILOAM SPGS    CLEAR     75  66  73 S5        30.03F
HIGHFILL       CLEAR     76  70  82 S6        30.03F
$$

ARZ004-005-016-220600-
NORTH CENTRAL ARKANSAS

CITY           SKY/WX    TMP DP  RH WIND       PRES   REMARKS
BATESVILLE     CLEAR     81  72  74 W3        30.04R
FLIPPIN        PTCLDY    79  68  69 S3        30.04S
MTN HOME       CLEAR     79  70  74 S6        30.04R
$$

ARZ040-041-220600-
WEST CENTRAL ARKANSAS

CITY           SKY/WX    TMP DP  RH WIND       PRES   REMARKS
MENA           CLEAR     86  72  62 S3        30.05S HX  92
MOUNT IDA      CLEAR     82  73  74 VRB3      30.03R HX  87
$$

ARZ009-017-025-026-028-220600-
NORTHEAST ARKANSAS

CITY           SKY/WX    TMP DP  RH WIND       PRES   REMARKS
CORNING        FAIR      77  73  88 SW8       30.04R
JONESBORO      CLEAR     79  73  82 SW5       30.03R
NEWPORT        CLEAR     78  75  90 CALM      30.04R
WALNUT RIDGE   CLEAR     77  72  83 S6        30.03S
BLYTHEVILLE    CLEAR     78  75  90 S6        30.04R
$$

ARZ022-023-033-042-044-220600-
CENTRAL ARKANSAS

CITY           SKY/WX    TMP DP  RH WIND       PRES   REMARKS
LITTLE ROCK    PTCLDY    78  73  84 S3        30.03S
N LITTLE ROCK  PTCLDY    81  74  80 SW6       30.03S HX  86
JACKSONVILLE   CLEAR     79  74  86 S3        30.03S
SEARCY           N/A     75  74  97 CALM        N/A
HOT SPRINGS    CLEAR     82  73  74 S3        30.05S HX  87
RUSSELLVILLE   CLEAR     78  73  84 NE3       30.03S
CLINTON        FAIR      77  73  88 CALM      30.04S
$$

ARZ036-220600-
EAST ARKANSAS

CITY           SKY/WX    TMP DP  RH WIND       PRES   REMARKS
WEST MEMPHIS   CLEAR     78  76  93 S5        30.02S
$$

ARZ050-053-066-070-073-220600-
SOUTHWEST ARKANSAS

CITY           SKY/WX    TMP DP  RH WIND       PRES   REMARKS
ARKADELPHIA    FAIR      79  76  90 CALM      30.04S
CAMDEN         CLEAR     77  72  83 S5        30.05S
TEXARKANA      CLEAR     81  74  79 S8        30.03F HX  86
EL DORADO      PTCLDY    76  72  87 S9        30.07S
DE QUEEN       CLEAR     82  72  71 VRB3      30.00S HX  87
$$

ARZ056-057-069-220600-
SOUTHEAST ARKANSAS

CITY           SKY/WX    TMP DP  RH WIND       PRES   REMARKS
PINE BLUFF     CLEAR     78  74  87 S6        30.05R
STUTTGART      CLEAR     79  72  78 S8        30.04S
MONTICELLO     CLEAR     79  70  74 SW7       30.06S

$$




USA.gov is the U.S. government's official web portal to all federal, state and local government web resources and services.